#timestamp,LO_Frequency,Hit,StdDev 
1576756815.3,286047000.5,N
1576756835.1,286047000.9,N
1576756855.9,286047002.2,N
1576756875.7,286046999.7,N
1576756895.5,286047001.1,N
1576756915.4,286046998.3,N
1576756935.2,286046996.6,N
1576756955.0,286046997.3,N
1576756955.9,286046997.3,N
1576756975.8,286046997.3,N
1576756995.6,286046999.2,N
1576757015.4,286046998.7,N
1576757035.3,286046997.0,N
1576757055.1,286046997.3,N
1576757075.9,286046996.7,N
1576757095.7,286046996.7,N
1576757115.5,286046995.0,N
1576757135.4,286046998.4,N
1576757155.2,286046999.4,N
1576757175.0,286046998.7,N
1576757176.0,286046998.7,N
1576757195.8,286047000.5,N
1576757215.6,286047002.4,N
1576757235.5,286047002.3,N
1576757255.3,286046998.1,N
1576757275.1,286047004.3,N
1576757295.9,286047003.9,N
1576757315.7,286047002.6,N
1576757335.5,286047002.5,N
1576757355.4,286047001.9,N
1576757375.2,286047002.1,N
1576757395.1,286047004.1,N
1576757396.0,286047004.1,N
1576757415.8,286047002.5,N
1576757435.6,286046999.9,N
1576757455.5,286047002.6,N
1576757475.3,286047000.6,N
1576757495.1,286046998.8,N
1576757515.9,286046998.9,N
1576757535.7,286046997.3,N
1576757555.6,286046998.3,N
1576757575.4,286046999.1,N
1576757595.2,286047000.0,N
1576757615.1,286046998.5,N
1576757616.0,286046998.5,N
1576757635.8,286047000.2,N
1576757655.7,286047001.1,N
1576757675.5,286046999.3,N
1576757695.3,286046998.6,N
1576757715.2,286046999.0,N
1576757735.0,286046997.7,N
1576757735.9,286046997.7,N
1576757755.7,286046996.5,N
1576757775.6,286046999.4,N
1576757795.4,286046997.7,N
1576757815.3,286046997.3,N
1576757835.1,286046999.6,N
1576757855.8,286046997.2,N
1576757875.7,286046999.2,N
1576757895.5,286046999.0,N
1576757915.4,286046998.3,N
1576757935.2,286046998.8,N
1576757955.0,286046998.4,N
1576757955.9,286046998.4,N
1576757975.8,286046998.0,N
1576757995.6,286046995.3,Y
1576758015.5,286046997.6,P
1576758035.3,286046997.8,P
1576758055.1,286046997.6,P
1576758075.9,286046996.9,Y
1576758095.7,286047002.4,P
1576758115.5,286047000.1,N
1576758135.4,286047000.2,N
1576758155.2,286047002.3,N
1576758175.1,286047001.4,N
1576758176.0,286047001.4,N
1576758195.8,286047003.9,N
1576758215.6,286047001.7,N
1576758235.5,286047002.4,N
1576758255.3,286047000.9,N
1576758275.1,286046998.8,N
1576758295.9,286046999.6,N
1576758315.7,286046997.4,N
1576758335.6,286046996.6,N
1576758355.4,286046997.1,N
1576758375.2,286046995.1,N
1576758395.1,286046995.2,N
1576758396.0,286046995.2,N
1576758415.8,286046998.0,N
1576758435.6,286046995.5,N
1576758455.5,286046996.2,N
1576758475.3,286046994.0,N
1576758495.2,286046993.5,N
1576758515.9,286046995.4,N
1576758535.7,286046997.5,N
1576758555.6,286046998.0,N
1576758575.4,286046997.7,N
1576758625.3,286046995.5,E
1576758635.2,286046999.4,N
1576758655.0,286047001.1,P
1576758655.9,286047001.1,N
1576758675.8,286047000.4,N
1576758695.6,286046998.2,N
1576758715.4,286046998.9,N
1576758735.3,286046999.0,N
1576758755.1,286047001.0,N
1576758775.9,286047001.2,N
1576758795.7,286046996.6,Y
1576758815.5,286046999.3,P
1576758835.4,286047000.9,N
1576758855.2,286047000.2,N
1576758875.0,286047001.0,N
1576758876.0,286047001.0,N
1576758895.8,286046998.6,N
1576758915.6,286046998.5,N
1576758935.5,286047001.1,N
1576758955.3,286046999.3,N
1576758975.1,286046997.0,Y
1576758995.9,286046998.7,P
1576759015.7,286046999.1,N
1576759035.6,286047001.1,N
1576759055.4,286046998.2,N
1576759075.2,286047000.5,N
1576759095.1,286046998.7,N
1576759096.0,286046998.7,N
1576759115.8,286046999.5,N
1576759135.6,286046999.3,N
1576759155.5,286046996.5,Y
1576759175.3,286046996.9,P
1576759195.2,286046996.6,N
1576759215.9,286046999.2,N
1576759235.7,286046998.9,N
1576759255.6,286046999.3,N
1576759275.4,286046996.7,N
1576759295.2,286046998.5,N
1576759315.1,286046998.8,N
1576759316.0,286046998.8,N
1576759335.8,286046998.5,N
1576759355.7,286046998.8,N
1576759375.5,286046998.7,N
1576759395.3,286046998.2,N
1576759415.2,286046998.2,N
1576759435.0,286047000.7,N
1576759435.9,286047000.7,N
1576759455.7,286047001.1,N
1576759475.6,286047001.0,N
1576759495.4,286047000.8,N
1576759515.3,286046998.9,N
1576759535.1,286046999.6,N
1576759536.0,286046999.6,N
1576759555.8,286046997.7,N
1576759575.7,286046999.0,N
1576759595.5,286046999.1,N
1576759615.4,286046999.2,N
1576759635.2,286046997.4,N
1576759655.0,286046997.7,N
1576759655.9,286046997.7,N
1576759675.8,286046997.1,N
1576759695.6,286046996.9,N
1576759715.4,286046999.0,N
1576759735.3,286046998.9,N
1576759755.1,286046998.6,N
1576759775.9,286046998.8,N
1576759795.7,286046997.2,N
1576759815.5,286046996.7,N
1576759835.4,286046997.6,N
1576759855.2,286046997.6,N
1576759875.1,286046998.9,N
1576759876.0,286046998.9,N
1576759895.8,286046998.6,N
1576759915.6,286047000.6,N
1576759935.5,286047001.1,N
1576759955.3,286046998.4,N
1576759975.1,286046999.0,N
1576759995.9,286047001.0,N
1576760015.7,286046998.5,N
1576760035.6,286047000.0,N
1576760055.4,286047002.7,N
1576760075.2,286046999.9,N
1576760095.1,286047002.5,N
1576760096.0,286047002.5,N
1576760115.8,286047002.4,N
1576760135.7,286047000.2,N
1576760155.5,286047001.1,N
1576760175.3,286046998.8,N
1576760195.2,286046997.0,N
1576760215.9,286046999.1,N
1576760235.7,286047000.6,N
1576760255.6,286046998.3,N
1576760275.4,286046998.3,N
1576760295.2,286046998.4,N
1576760315.1,286046999.1,N
1576760316.0,286046999.1,N
1576760335.8,286046998.6,N
1576760355.7,286046999.1,N
1576760375.5,286046999.0,N
1576760395.3,286046996.5,N
